41.8°F
Current conditions from King Hill
Updated every 5 minutes
 
  Friday October 24, 2014

Station Historical Data
Daily Summary for May 4, 2012 Units:  English    Metric   Both
« Previous Day
Next Day »
Daily Weekly Monthly Yearly Custom
  High: Low: Average:
Temperature: 62.6 °F 53.5 °F 57.1 °F
Dew Point: 59.9 °F 50.4 °F 55.2 °F
Humidity: 96% 84% 93%
Wind Speed: 9.0mph 1.0mph 4.7mph
Wind Gust: 18.0mph - -
Wind- - SSW
Pressure: 29.94 in 29.82 in -
Precipitation: 0.40 in    
Historical Graphs
 
 
Tabular Data for May 4, 2012
Time Temperature Dew Point Pressure Wind Wind Speed Wind Gust Humidity Daily Rainfall
00:04 55.3 °F 50.6 °F 29.94 in SW 1.0 mph 6.0 mph 84% 0.00 in
00:09 55.2 °F 50.5 °F 29.94 in Calm   5.0 mph 84% 0.00 in
00:14 55.1 °F 50.4 °F 29.93 in SSW 1.0 mph 4.0 mph 84% 0.00 in
00:19 55.1 °F 50.7 °F 29.93 in South 3.0 mph 7.0 mph 85% 0.01 in
00:24 55.0 °F 50.9 °F 29.93 in SSW 2.0 mph 7.0 mph 86% 0.02 in
00:29 54.8 °F 50.7 °F 29.92 in SSW 1.0 mph 5.0 mph 86% 0.04 in
00:39 54.5 °F 51.0 °F 29.93 in SW 4.0 mph 7.0 mph 88% 0.07 in
00:44 54.3 °F 50.8 °F 29.94 in SW 1.0 mph 7.0 mph 88% 0.08 in
00:49 54.1 °F 50.6 °F 29.94 in SSW 2.0 mph 7.0 mph 88% 0.09 in
00:54 53.9 °F 50.7 °F 29.94 in SSW 2.0 mph 7.0 mph 89% 0.10 in
00:59 53.8 °F 50.6 °F 29.93 in SSW 2.0 mph 7.0 mph 89% 0.11 in
01:04 53.7 °F 50.8 °F 29.92 in SSW 4.0 mph 8.0 mph 90% 0.12 in
01:09 53.8 °F 50.9 °F 29.91 in South 6.0 mph 10.0 mph 90% 0.13 in
01:14 53.7 °F 50.8 °F 29.91 in South 5.0 mph 11.0 mph 90% 0.15 in
01:19 53.5 °F 50.9 °F 29.91 in SSW 8.0 mph 13.0 mph 91% 0.17 in
01:24 53.5 °F 50.9 °F 29.90 in SSW 6.0 mph 15.0 mph 91% 0.19 in
01:29 53.5 °F 51.2 °F 29.89 in SSW 6.0 mph 15.0 mph 92% 0.20 in
01:34 53.7 °F 51.4 °F 29.89 in SSW 7.0 mph 14.0 mph 92% 0.22 in
01:39 53.7 °F 51.4 °F 29.88 in South 6.0 mph 14.0 mph 92% 0.22 in
01:44 53.7 °F 51.7 °F 29.87 in South 7.0 mph 14.0 mph 93% 0.24 in
01:49 53.9 °F 51.9 °F 29.88 in South 7.0 mph 18.0 mph 93% 0.24 in
01:54 53.9 °F 51.9 °F 29.87 in South 6.0 mph 18.0 mph 93% 0.24 in
01:59 53.9 °F 51.9 °F 29.87 in South 6.0 mph 17.0 mph 93% 0.24 in
02:04 53.9 °F 51.9 °F 29.87 in SSW 7.0 mph 17.0 mph 93% 0.24 in
02:09 53.9 °F 52.2 °F 29.87 in SSW 7.0 mph 15.0 mph 94% 0.24 in
02:14 54.0 °F 52.3 °F 29.86 in SSW 7.0 mph 13.0 mph 94% 0.24 in
02:19 54.1 °F 52.4 °F 29.86 in SSW 5.0 mph 16.0 mph 94% 0.24 in
02:24 54.1 °F 52.4 °F 29.86 in SSW 7.0 mph 16.0 mph 94% 0.24 in
02:34 54.1 °F 52.4 °F 29.85 in SSW 7.0 mph 13.0 mph 94% 0.24 in
02:39 54.1 °F 52.4 °F 29.85 in SSW 3.0 mph 13.0 mph 94% 0.24 in
02:44 54.2 °F 52.5 °F 29.85 in SSW 9.0 mph 15.0 mph 94% 0.24 in
02:49 54.2 °F 52.5 °F 29.85 in SSW 7.0 mph 15.0 mph 94% 0.24 in
02:54 54.2 °F 52.5 °F 29.85 in SSW 6.0 mph 15.0 mph 94% 0.24 in
02:59 54.2 °F 52.5 °F 29.85 in South 3.0 mph 12.0 mph 94% 0.24 in
03:04 54.2 °F 52.5 °F 29.84 in SSW 6.0 mph 11.0 mph 94% 0.24 in
03:09 54.2 °F 52.5 °F 29.83 in SSW 6.0 mph 13.0 mph 94% 0.24 in
03:14 54.2 °F 52.5 °F 29.83 in South 4.0 mph 13.0 mph 94% 0.24 in
03:19 54.3 °F 52.6 °F 29.83 in South 3.0 mph 13.0 mph 94% 0.24 in
03:24 54.4 °F 52.7 °F 29.82 in South 5.0 mph 14.0 mph 94% 0.24 in
03:29 54.6 °F 52.9 °F 29.82 in South 6.0 mph 14.0 mph 94% 0.24 in
03:39 54.7 °F 53.0 °F 29.83 in SSW 2.0 mph 13.0 mph 94% 0.24 in
03:44 54.7 °F 53.0 °F 29.83 in SSW 3.0 mph 13.0 mph 94% 0.24 in
03:49 54.7 °F 53.0 °F 29.83 in Calm   10.0 mph 94% 0.25 in
03:54 54.7 °F 53.0 °F 29.84 in SSW 3.0 mph 9.0 mph 94% 0.25 in
03:59 54.6 °F 52.9 °F 29.84 in SSW 4.0 mph 9.0 mph 94% 0.25 in
04:04 54.6 °F 52.9 °F 29.85 in SSW 2.0 mph 9.0 mph 94% 0.26 in
04:09 54.5 °F 52.8 °F 29.85 in SW 2.0 mph 9.0 mph 94% 0.26 in
04:14 54.5 °F 52.8 °F 29.85 in South 4.0 mph 12.0 mph 94% 0.26 in
04:19 54.6 °F 52.9 °F 29.85 in SSW 6.0 mph 12.0 mph 94% 0.26 in
04:24 54.6 °F 52.9 °F 29.84 in SSW 4.0 mph 16.0 mph 94% 0.26 in
04:34 54.6 °F 52.9 °F 29.84 in SSW 7.0 mph 12.0 mph 94% 0.26 in
04:39 54.5 °F 52.8 °F 29.84 in SSW 5.0 mph 12.0 mph 94% 0.26 in
04:44 54.4 °F 52.7 °F 29.84 in South 4.0 mph 12.0 mph 94% 0.26 in
04:49 54.3 °F 52.6 °F 29.84 in SSW 2.0 mph 8.0 mph 94% 0.26 in
04:59 54.2 °F 52.5 °F 29.84 in SSW 5.0 mph 10.0 mph 94% 0.26 in
05:04 54.2 °F 52.5 °F 29.84 in SSW 5.0 mph 10.0 mph 94% 0.27 in
05:09 54.2 °F 52.5 °F 29.84 in SSW 2.0 mph 10.0 mph 94% 0.27 in
05:14 54.3 °F 52.6 °F 29.84 in SSW 5.0 mph 12.0 mph 94% 0.27 in
05:19 54.4 °F 52.7 °F 29.84 in SSW 5.0 mph 12.0 mph 94% 0.27 in
05:24 54.4 °F 52.7 °F 29.84 in SSW 4.0 mph 13.0 mph 94% 0.27 in
05:34 54.3 °F 52.6 °F 29.84 in SSW 4.0 mph 14.0 mph 94% 0.28 in
05:39 54.3 °F 52.6 °F 29.84 in SSW 6.0 mph 14.0 mph 94% 0.28 in
05:44 54.2 °F 52.5 °F 29.84 in SSW 9.0 mph 15.0 mph 94% 0.28 in
05:49 54.2 °F 52.5 °F 29.84 in SSW 4.0 mph 15.0 mph 94% 0.28 in
05:59 54.1 °F 52.4 °F 29.83 in SSW 6.0 mph 17.0 mph 94% 0.28 in
06:04 54.1 °F 52.4 °F 29.83 in SSW 6.0 mph 16.0 mph 94% 0.28 in
06:09 54.0 °F 52.3 °F 29.83 in SSW 7.0 mph 16.0 mph 94% 0.28 in
06:14 53.9 °F 52.2 °F 29.83 in SSW 7.0 mph 15.0 mph 94% 0.28 in
06:19 53.8 °F 52.1 °F 29.83 in SSW 5.0 mph 15.0 mph 94% 0.28 in
06:24 53.7 °F 52.0 °F 29.83 in SSW 6.0 mph 15.0 mph 94% 0.28 in
06:29 53.7 °F 52.3 °F 29.83 in SSW 7.0 mph 15.0 mph 95% 0.28 in
06:39 53.7 °F 52.3 °F 29.83 in SSW 6.0 mph 16.0 mph 95% 0.28 in
06:44 53.7 °F 52.3 °F 29.83 in SSW 7.0 mph 16.0 mph 95% 0.28 in
06:54 53.8 °F 52.4 °F 29.83 in SSW 7.0 mph 12.0 mph 95% 0.28 in
06:59 53.8 °F 52.4 °F 29.83 in SSW 7.0 mph 14.0 mph 95% 0.28 in
07:04 53.8 °F 52.4 °F 29.83 in SSW 5.0 mph 14.0 mph 95% 0.28 in
07:09 53.9 °F 52.5 °F 29.84 in SW 3.0 mph 12.0 mph 95% 0.28 in
07:14 53.9 °F 52.5 °F 29.84 in SW 5.0 mph 12.0 mph 95% 0.28 in
07:19 53.8 °F 52.4 °F 29.84 in SW 6.0 mph 13.0 mph 95% 0.28 in
07:24 53.8 °F 52.4 °F 29.84 in SW 7.0 mph 13.0 mph 95% 0.28 in
07:29 53.8 °F 52.4 °F 29.84 in SW 7.0 mph 13.0 mph 95% 0.28 in
07:39 53.9 °F 52.5 °F 29.84 in SW 8.0 mph 14.0 mph 95% 0.28 in
07:44 53.9 °F 52.5 °F 29.84 in SSW 5.0 mph 14.0 mph 95% 0.28 in
07:54 54.1 °F 52.4 °F 29.84 in SW 8.0 mph 13.0 mph 94% 0.28 in
07:59 54.2 °F 52.5 °F 29.84 in SSW 7.0 mph 12.0 mph 94% 0.28 in
08:04 54.3 °F 52.9 °F 29.84 in SSW 5.0 mph 12.0 mph 95% 0.28 in
08:09 54.5 °F 53.1 °F 29.84 in SSW 6.0 mph 12.0 mph 95% 0.28 in
08:14 54.6 °F 53.2 °F 29.84 in SSW 2.0 mph 12.0 mph 95% 0.28 in
08:19 54.6 °F 52.9 °F 29.84 in SW 6.0 mph 13.0 mph 94% 0.28 in
08:24 54.6 °F 52.9 °F 29.84 in SW 5.0 mph 13.0 mph 94% 0.28 in
08:29 54.6 °F 52.9 °F 29.84 in SSW 6.0 mph 10.0 mph 94% 0.28 in
08:34 54.7 °F 53.0 °F 29.84 in SSW 4.0 mph 10.0 mph 94% 0.28 in
08:44 54.9 °F 53.2 °F 29.83 in SSW 6.0 mph 12.0 mph 94% 0.29 in
08:49 55.0 °F 53.6 °F 29.84 in SSW 7.0 mph 11.0 mph 95% 0.29 in
08:54 55.1 °F 53.7 °F 29.84 in SSW 5.0 mph 11.0 mph 95% 0.29 in
08:59 55.2 °F 53.8 °F 29.84 in SSW 6.0 mph 12.0 mph 95% 0.29 in
09:04 55.3 °F 53.9 °F 29.84 in SSW 6.0 mph 12.0 mph 95% 0.29 in
09:09 55.3 °F 53.6 °F 29.84 in SSW 6.0 mph 12.0 mph 94% 0.29 in
09:14 55.4 °F 53.7 °F 29.84 in SSW 4.0 mph 12.0 mph 94% 0.29 in
09:19 55.4 °F 53.7 °F 29.84 in SSW 7.0 mph 13.0 mph 94% 0.29 in
09:24 55.3 °F 53.6 °F 29.84 in SW 8.0 mph 13.0 mph 94% 0.29 in
09:34 55.2 °F 53.5 °F 29.84 in SSW 6.0 mph 12.0 mph 94% 0.29 in
09:39 55.3 °F 53.6 °F 29.84 in SSW 5.0 mph 12.0 mph 94% 0.29 in
09:44 55.2 °F 53.5 °F 29.84 in SSW 3.0 mph 12.0 mph 94% 0.29 in
09:54 55.2 °F 53.5 °F 29.84 in SSW 6.0 mph 12.0 mph 94% 0.29 in
09:59 55.2 °F 53.5 °F 29.84 in SSW 4.0 mph 12.0 mph 94% 0.29 in
10:04 55.1 °F 53.4 °F 29.84 in SSW 5.0 mph 12.0 mph 94% 0.29 in
10:09 55.2 °F 53.5 °F 29.84 in SSW 3.0 mph 12.0 mph 94% 0.30 in
10:14 55.2 °F 53.5 °F 29.84 in SSW 5.0 mph 11.0 mph 94% 0.30 in
10:19 55.1 °F 53.7 °F 29.84 in SSW 4.0 mph 10.0 mph 95% 0.30 in
10:24 55.1 °F 53.7 °F 29.84 in SSW 4.0 mph 12.0 mph 95% 0.30 in
10:29 55.3 °F 53.9 °F 29.83 in SSW 4.0 mph 12.0 mph 95% 0.30 in
10:34 55.4 °F 54.0 °F 29.84 in SSW 6.0 mph 11.0 mph 95% 0.31 in
10:44 55.5 °F 54.1 °F 29.83 in SSW 5.0 mph 11.0 mph 95% 0.32 in
10:49 55.5 °F 54.1 °F 29.83 in SSW 4.0 mph 11.0 mph 95% 0.32 in
10:54 55.6 °F 54.2 °F 29.83 in SSW 6.0 mph 11.0 mph 95% 0.32 in
10:59 55.7 °F 54.3 °F 29.83 in SSW 5.0 mph 11.0 mph 95% 0.32 in
11:04 55.7 °F 54.3 °F 29.83 in SSW 5.0 mph 13.0 mph 95% 0.32 in
11:09 55.8 °F 54.4 °F 29.83 in SSW 5.0 mph 13.0 mph 95% 0.32 in
11:14 55.9 °F 54.5 °F 29.84 in SSW 6.0 mph 10.0 mph 95% 0.32 in
11:19 55.9 °F 54.5 °F 29.84 in SSW 5.0 mph 10.0 mph 95% 0.33 in
11:24 55.9 °F 54.5 °F 29.83 in SSW 6.0 mph 11.0 mph 95% 0.33 in
11:29 56.0 °F 54.6 °F 29.83 in SSW 5.0 mph 11.0 mph 95% 0.33 in
11:34 56.3 °F 54.9 °F 29.83 in SSW 5.0 mph 10.0 mph 95% 0.33 in
11:39 56.5 °F 55.1 °F 29.83 in SW 3.0 mph 11.0 mph 95% 0.33 in
11:44 56.7 °F 55.6 °F 29.83 in SSW 5.0 mph 11.0 mph 96% 0.33 in
11:49 56.7 °F 55.6 °F 29.83 in SW 4.0 mph 9.0 mph 96% 0.33 in
11:54 56.4 °F 55.0 °F 29.83 in SSW 3.0 mph 9.0 mph 95% 0.33 in
11:59 56.6 °F 55.5 °F 29.84 in SW 3.0 mph 8.0 mph 96% 0.33 in
12:04 56.8 °F 55.7 °F 29.84 in Calm   7.0 mph 96% 0.34 in
12:09 56.7 °F 55.6 °F 29.84 in SSW 2.0 mph 7.0 mph 96% 0.34 in
12:14 56.7 °F 55.6 °F 29.85 in SSW 1.0 mph 7.0 mph 96% 0.35 in
12:19 56.9 °F 55.8 °F 29.84 in Calm   7.0 mph 96% 0.35 in
12:24 57.3 °F 56.2 °F 29.83 in Calm   5.0 mph 96% 0.36 in
12:29 57.3 °F 56.2 °F 29.84 in SSW 1.0 mph 7.0 mph 96% 0.36 in
12:35 57.5 °F 56.4 °F 29.83 in SW 2.0 mph 7.0 mph 96% 0.36 in
12:44 57.6 °F 56.5 °F 29.83 in SW 1.0 mph 7.0 mph 96% 0.36 in
12:49 57.6 °F 56.5 °F 29.83 in Calm   7.0 mph 96% 0.36 in
12:55 57.9 °F 56.8 °F 29.83 in SSW 1.0 mph 7.0 mph 96% 0.36 in
13:04 58.2 °F 57.1 °F 29.83 in SSW 1.0 mph 4.0 mph 96% 0.36 in
13:09 58.2 °F 57.1 °F 29.83 in Calm   5.0 mph 96% 0.36 in
13:14 58.5 °F 57.4 °F 29.83 in Calm   5.0 mph 96% 0.36 in
13:19 58.6 °F 57.5 °F 29.83 in SW 1.0 mph 6.0 mph 96% 0.36 in
13:24 58.5 °F 57.4 °F 29.83 in SW 1.0 mph 6.0 mph 96% 0.36 in
13:29 58.6 °F 57.5 °F 29.83 in Calm   5.0 mph 96% 0.36 in
13:34 58.7 °F 57.6 °F 29.83 in SW 4.0 mph 5.0 mph 96% 0.36 in
13:39 58.8 °F 57.7 °F 29.83 in SSW 1.0 mph 5.0 mph 96% 0.36 in
13:44 58.9 °F 57.8 °F 29.83 in Calm   5.0 mph 96% 0.36 in
13:49 59.0 °F 57.9 °F 29.83 in Calm   5.0 mph 96% 0.36 in
13:54 59.0 °F 57.9 °F 29.83 in Calm   4.0 mph 96% 0.36 in
13:59 59.5 °F 58.4 °F 29.82 in Calm   4.0 mph 96% 0.36 in
14:04 60.5 °F 59.4 °F 29.83 in Calm     96% 0.36 in
14:09 60.2 °F 59.1 °F 29.83 in SW 4.0 mph 7.0 mph 96% 0.36 in
14:14 60.2 °F 59.1 °F 29.83 in SW 2.0 mph 7.0 mph 96% 0.36 in
14:19 60.1 °F 59.0 °F 29.83 in Calm   5.0 mph 96% 0.36 in
14:24 60.7 °F 59.6 °F 29.83 in Calm   1.0 mph 96% 0.36 in
14:29 61.0 °F 59.9 °F 29.83 in Calm     96% 0.36 in
14:34 60.7 °F 59.3 °F 29.83 in Calm   1.0 mph 95% 0.36 in
14:39 60.8 °F 59.4 °F 29.83 in Calm   1.0 mph 95% 0.36 in
14:44 60.9 °F 59.5 °F 29.83 in Calm     95% 0.36 in
14:49 61.2 °F 59.5 °F 29.83 in Calm     94% 0.36 in
14:54 61.4 °F 59.7 °F 29.83 in Calm     94% 0.36 in
14:59 61.5 °F 59.8 °F 29.83 in Calm     94% 0.36 in
15:04 61.5 °F 59.5 °F 29.83 in Calm     93% 0.36 in
15:09 61.7 °F 59.7 °F 29.83 in Calm     93% 0.36 in
15:19 61.9 °F 59.9 °F 29.83 in Calm     93% 0.36 in
15:24 62.0 °F 59.7 °F 29.83 in Calm     92% 0.36 in
15:29 62.0 °F 59.7 °F 29.83 in Calm     92% 0.36 in
15:34 62.2 °F 59.8 °F 29.83 in Calm     92% 0.36 in
15:39 62.1 °F 59.4 °F 29.83 in Calm     91% 0.36 in
15:49 62.3 °F 59.6 °F 29.83 in Calm     91% 0.36 in
15:54 62.3 °F 59.6 °F 29.83 in Calm     91% 0.36 in
15:59 62.3 °F 59.6 °F 29.83 in Calm     91% 0.36 in
16:04 62.5 °F 59.8 °F 29.83 in Calm     91% 0.36 in
16:09 62.5 °F 59.8 °F 29.84 in Calm     91% 0.36 in
16:14 62.5 °F 59.5 °F 29.84 in Calm     90% 0.36 in
16:19 62.5 °F 59.5 °F 29.84 in Calm     90% 0.36 in
16:24 62.5 °F 59.5 °F 29.84 in Calm     90% 0.36 in
16:29 62.5 °F 59.2 °F 29.84 in Calm     89% 0.36 in
16:39 62.5 °F 59.2 °F 29.84 in Calm     89% 0.36 in
16:44 62.5 °F 58.9 °F 29.84 in Calm     88% 0.36 in
16:49 62.6 °F 59.0 °F 29.84 in Calm     88% 0.36 in
16:54 62.6 °F 58.7 °F 29.85 in Calm   2.0 mph 87% 0.36 in
16:59 62.6 °F 58.7 °F 29.85 in Calm   2.0 mph 87% 0.36 in
17:04 62.6 °F 58.7 °F 29.85 in Calm     87% 0.36 in
17:09 62.6 °F 58.7 °F 29.85 in Calm     87% 0.36 in
17:14 62.5 °F 58.6 °F 29.85 in Calm     87% 0.36 in
17:19 62.3 °F 58.4 °F 29.85 in Calm     87% 0.36 in
17:24 62.2 °F 58.3 °F 29.85 in Calm     87% 0.36 in
17:29 62.2 °F 58.3 °F 29.85 in Calm     87% 0.36 in
17:34 62.2 °F 58.6 °F 29.85 in Calm     88% 0.36 in
17:39 62.3 °F 58.7 °F 29.85 in Calm     88% 0.36 in
17:44 62.3 °F 58.7 °F 29.85 in Calm     88% 0.36 in
17:49 62.0 °F 58.1 °F 29.85 in Calm   1.0 mph 87% 0.36 in
17:54 61.8 °F 58.2 °F 29.85 in Calm   1.0 mph 88% 0.36 in
17:59 61.6 °F 58.0 °F 29.86 in Calm     88% 0.36 in
18:04 61.3 °F 58.0 °F 29.86 in Calm     89% 0.36 in
18:09 61.0 °F 57.7 °F 29.86 in Calm     89% 0.38 in
18:14 60.9 °F 57.9 °F 29.86 in Calm     90% 0.38 in
18:19 60.7 °F 57.8 °F 29.85 in Calm     90% 0.38 in
18:24 60.8 °F 58.2 °F 29.85 in Calm     91% 0.38 in
18:34 60.9 °F 58.6 °F 29.85 in Calm     92% 0.38 in
18:39 60.8 °F 58.5 °F 29.86 in Calm     92% 0.38 in
18:44 60.8 °F 58.5 °F 29.86 in Calm     92% 0.38 in
18:49 60.9 °F 58.6 °F 29.86 in Calm     92% 0.38 in
18:54 60.8 °F 58.5 °F 29.86 in Calm     92% 0.38 in
18:59 60.9 °F 58.6 °F 29.86 in Calm     92% 0.38 in
19:04 61.1 °F 59.1 °F 29.86 in Calm     93% 0.38 in
19:09 61.2 °F 59.2 °F 29.86 in Calm     93% 0.38 in
19:14 61.1 °F 59.1 °F 29.86 in Calm     93% 0.38 in
19:19 60.8 °F 58.5 °F 29.86 in Calm     92% 0.38 in
19:24 60.7 °F 58.4 °F 29.86 in Calm     92% 0.38 in
19:29 60.5 °F 58.2 °F 29.86 in Calm     92% 0.38 in
19:34 60.4 °F 58.4 °F 29.86 in Calm     93% 0.38 in
19:39 60.3 °F 58.0 °F 29.86 in Calm     92% 0.38 in
19:44 60.0 °F 57.7 °F 29.86 in Calm     92% 0.38 in
19:49 59.7 °F 57.4 °F 29.86 in Calm     92% 0.38 in
19:54 59.5 °F 57.2 °F 29.86 in Calm     92% 0.38 in
19:59 59.2 °F 56.9 °F 29.86 in Calm     92% 0.38 in
20:04 59.0 °F 56.7 °F 29.86 in Calm     92% 0.38 in
20:09 59.0 °F 57.6 °F 29.86 in Calm     95% 0.38 in
20:14 58.5 °F 56.5 °F 29.86 in Calm     93% 0.38 in
20:19 58.4 °F 56.4 °F 29.86 in Calm     93% 0.38 in
20:24 58.5 °F 56.5 °F 29.86 in Calm     93% 0.38 in
20:29 58.4 °F 56.4 °F 29.86 in Calm     93% 0.38 in
20:39 57.9 °F 56.2 °F 29.86 in Calm     94% 0.38 in
20:44 57.7 °F 55.7 °F 29.87 in Calm     93% 0.38 in
20:49 57.6 °F 55.9 °F 29.87 in Calm     94% 0.38 in
20:54 57.5 °F 55.8 °F 29.87 in Calm     94% 0.38 in
20:59 57.7 °F 56.0 °F 29.87 in Calm     94% 0.38 in
21:04 58.1 °F 56.7 °F 29.87 in Calm     95% 0.38 in
21:09 58.2 °F 56.8 °F 29.87 in Calm   3.0 mph 95% 0.38 in
21:14 58.3 °F 56.9 °F 29.87 in Calm   3.0 mph 95% 0.38 in
21:19 58.3 °F 56.9 °F 29.87 in Calm     95% 0.38 in
21:24 58.1 °F 56.7 °F 29.87 in Calm     95% 0.38 in
21:34 57.8 °F 56.4 °F 29.88 in Calm     95% 0.38 in
21:44 57.5 °F 56.1 °F 29.88 in Calm     95% 0.38 in
21:54 57.0 °F 55.6 °F 29.88 in Calm     95% 0.38 in
21:59 57.1 °F 55.7 °F 29.88 in Calm     95% 0.38 in
22:04 57.2 °F 56.1 °F 29.88 in Calm     96% 0.38 in
22:09 57.2 °F 56.1 °F 29.87 in Calm     96% 0.38 in
22:14 56.8 °F 55.4 °F 29.87 in Calm     95% 0.38 in
22:19 56.6 °F 55.2 °F 29.87 in Calm     95% 0.38 in
22:24 56.6 °F 55.5 °F 29.87 in Calm     96% 0.38 in
22:34 56.5 °F 55.1 °F 29.87 in Calm     95% 0.38 in
22:39 56.6 °F 55.5 °F 29.87 in Calm     96% 0.38 in
22:44 56.7 °F 55.6 °F 29.87 in Calm     96% 0.38 in
22:49 56.7 °F 55.6 °F 29.87 in Calm     96% 0.38 in
22:59 57.2 °F 56.1 °F 29.88 in Calm     96% 0.38 in
23:04 57.4 °F 56.3 °F 29.88 in Calm     96% 0.38 in
23:09 57.4 °F 56.3 °F 29.88 in Calm     96% 0.38 in
23:14 57.3 °F 56.2 °F 29.88 in Calm   5.0 mph 96% 0.38 in
23:19 57.3 °F 56.2 °F 29.88 in NNW 1.0 mph 6.0 mph 96% 0.38 in
23:24 57.4 °F 56.3 °F 29.88 in Calm   6.0 mph 96% 0.39 in
23:34 57.5 °F 56.4 °F 29.88 in North 2.0 mph 7.0 mph 96% 0.40 in
23:39 57.6 °F 56.5 °F 29.89 in Calm   7.0 mph 96% 0.40 in
23:44 57.6 °F 56.5 °F 29.89 in NNW 1.0 mph 7.0 mph 96% 0.40 in
23:49 57.5 °F 56.4 °F 29.89 in NW 5.0 mph 10.0 mph 96% 0.40 in
23:54 57.2 °F 56.1 °F 29.89 in NNW 7.0 mph 18.0 mph 96% 0.40 in
23:59 56.6 °F 55.5 °F 29.89 in NNW 6.0 mph 18.0 mph 96% 0.40 in
Westford Weather
Compliments of Weather Underground

 
 
Current Radar Loop:

Copyright © WestfordWeather.net 2007-2014. All rights reserved.